Home > Weather > Camrose > Past weeks

Flag for Canada Weather for the Past 2 Weeks in Camrose, Alberta, Canada

Now
37 °F

Partly sunny.


Feels Like: 31 °F
Forecast: 15 / 36 °F
Wind: 9 mph from South

Location: Edmonton International

Current Time: Feb 5, 2016 at 3:40:39 PM

Latest Report: Feb 5, 2016 at 3:00 PM


Visibility: 15 mi

Pressure: 29.77 "Hg (27.15 "Hg at 744m altitude)

Humidity: 65%

Dew point: 27 °F

Location of CamroseLocation

Historic Weather in Camrose — Graph

°F

Camrose Temperature Yesterday

Maximum temperature yesterday: 21 °F (at 3:00 PM)
Minimum temperature yesterday: 3 °F (at 12:00 AM)
Average temperature yesterday: 15 °F

High & Low Weather Summary for the Past Weeks

 TemperatureHumidityPressure
High46 °F (Jan 28, 6:00 PM)100% (Jan 24, 12:00 PM)30.20 "Hg (Jan 24, 12:00 PM)
Low1 °F (Feb 3, 10:00 PM)49% (Jan 28, 9:00 PM)29.33 "Hg (Jan 28, 3:00 PM)
Average21 °F80%29.91 "Hg
* Reported Jan 21 2:00 PM — Feb 5 2:00 PM, Camrose, Weather by CustomWeather, © 2016

Note: Actual official high and low records may vary slightly from our data, if they occured in-between our weather recording intervals... More about our weather records

Advertising

Camrose Weather History for the Previous 24 Hours

 ConditionsComfort  
Time TempWeatherWind HumidityBarometerVisibility
2:00 PM
Fri, Feb 5
36 °FBroken clouds.9 mph65%29.80 "Hg15 mi
1:00 PM36 °FPartly sunny.15 mph65%29.83 "Hg15 mi
12:00 PM34 °FPartly sunny.8 mph70%29.87 "Hg15 mi
11:00 AM30 °FBroken clouds.10 mph69%29.90 "Hg15 mi
10:00 AM27 °FBroken clouds.12 mph69%29.93 "Hg15 mi
9:00 AM25 °FPartly sunny.13 mph69%29.96 "Hg15 mi
8:00 AM23 °FPartly cloudy.13 mph68%29.98 "Hg15 mi
7:00 AM23 °FMostly cloudy.12 mph68%30.00 "Hg15 mi
6:00 AM21 °FMostly cloudy.10 mph68%30.01 "Hg15 mi
5:00 AM19 °FPassing clouds.10 mph68%30.04 "Hg15 mi
4:00 AM16 °FPassing clouds.9 mph67%30.06 "Hg15 mi
3:00 AM21 °FPartly cloudy.7 mph63%30.06 "Hg15 mi
2:00 AM18 °FPartly cloudy.9 mph68%30.08 "Hg15 mi
1:00 AM14 °FPassing clouds.9 mph79%30.09 "Hg15 mi
12:00 AM12 °FPassing clouds.9 mph79%30.11 "Hg15 mi
11:00 PM
Thu, Feb 4
14 °FPassing clouds.12 mph79%30.12 "Hg15 mi
10:00 PM14 °FPassing clouds.10 mph73%30.12 "Hg15 mi
9:00 PM12 °FPassing clouds.7 mph79%30.14 "Hg15 mi
8:00 PM14 °FPassing clouds.9 mph79%30.13 "Hg15 mi
7:00 PM16 °FPassing clouds.7 mph79%30.11 "Hg12 mi
6:00 PM18 °FPassing clouds.8 mph79%30.10 "Hg12 mi
5:00 PM19 °FPassing clouds.6 mph73%30.10 "Hg12 mi
4:00 PM21 °FPassing clouds.8 mph80%30.08 "Hg12 mi
3:00 PM21 °FPartly sunny.8 mph80%30.09 "Hg12 mi
Weather by CustomWeather, © 2016

See weather overviewHow to use our weather pages